Home   Weather   Loma Linda   Past weeks

Flag for USA Past Weather in Loma Linda, California, USA — Yesterday and Last 2 Weeks

Now
99 °F

Sunny.


Feels Like: 93 °F
Forecast: 68 / 94 °F
Wind: 3 mph from Northeast

Location: Norton Air Force Base / San Bern

Current Time: Sep 25, 2016 at 5:29:31 PM

Latest Report: Sep 25, 2016 at 3:46 PM


Visibility: 10 mi

Pressure: 29.94 "Hg

Humidity: 8%

Dew Point: 27 °F

Location of Loma LindaLocation

Past Weather in Loma Linda — Graph

°F

Loma Linda Temperature Yesterday

Maximum temperature yesterday: 97 °F (at 3:47 PM)
Minimum temperature yesterday: 58 °F (at 6:33 AM)
Average temperature yesterday: 72 °F

High & Low Weather Summary for the Past Weeks

 TemperatureHumidityPressure
High106 °F (Sep 18, 1:50 PM)89% (Sep 12, 6:34 AM)30.10 "Hg (Sep 12, 6:34 AM)
Low53 °F (Sep 23, 6:34 AM)6% (Sep 18, 12:48 PM)29.83 "Hg (Sep 21, 4:48 PM)
Average71 °F47%29.97 "Hg
* Reported Sep 10 5:50 PM — Sep 25 3:46 PM, Loma Linda, Weather by CustomWeather, © 2016

Note: Actual official high and low records may vary slightly from our data, if they occured in-between our weather recording intervals... More about our weather records

Advertising

Loma Linda Weather History for the Previous 24 Hours

Scroll right to see more
 ConditionsComfort  
Time TempWeatherWind HumidityBarometerVisibility
3:46 PM
Sun, Sep 25
99 °FSunny.3 mph8%29.94 "Hg10 mi
2:50 PM97 °FSunny.3 mph8%29.96 "Hg10 mi
1:47 PM97 °FSunny.3 mph8%29.97 "Hg10 mi
12:50 PM95 °FSunny.No wind9%30.00 "Hg10 mi
11:50 AM93 °FSunny.3 mph10%30.02 "Hg10 mi
10:55 AM91 °FSunny.3 mph10%30.05 "Hg10 mi
9:50 AM86 °FSunny.No wind13%30.07 "Hg10 mi
8:50 AM81 °FSunny.No wind16%30.07 "Hg10 mi
7:49 AM68 °FSunny.3 mph26%30.07 "Hg10 mi
6:53 AM65 °FSunny.No wind32%30.05 "Hg10 mi
6:33 AM65 °FClear.No wind30%30.05 "Hg10 mi
6:13 AM68 °FClear.3 mph28%30.05 "Hg10 mi
5:53 AM66 °FClear.No wind28%30.04 "Hg10 mi
5:34 AM68 °FClear.5 mph26%30.04 "Hg10 mi
5:13 AM64 °FClear.5 mph30%30.04 "Hg10 mi
4:53 AM65 °FClear.No wind30%30.03 "Hg10 mi
4:34 AM64 °FClear.No wind32%30.02 "Hg10 mi
4:13 AM66 °FClear.3 mph30%30.01 "Hg10 mi
3:53 AM65 °FClear.3 mph29%30.01 "Hg10 mi
3:34 AM65 °FClear.5 mph29%30.01 "Hg10 mi
3:13 AM69 °FClear.5 mph26%30.01 "Hg10 mi
2:53 AM66 °FClear.No wind28%30.01 "Hg10 mi
2:34 AM67 °FClear.5 mph30%30.02 "Hg10 mi
2:13 AM67 °FClear.No wind30%30.02 "Hg10 mi
1:53 AM70 °FClear.No wind30%30.02 "Hg10 mi
1:34 AM70 °FClear.No wind30%30.01 "Hg10 mi
1:13 AM67 °FClear.No wind32%30.01 "Hg10 mi
12:53 AM70 °FClear.No wind30%30.01 "Hg10 mi
12:34 AM69 °FClear.7 mph25%30.01 "Hg10 mi
12:13 AM70 °FClear.3 mph27%30.01 "Hg10 mi
11:54 PM
Sat, Sep 24
70 °FClear.No wind32%30.02 "Hg10 mi
11:33 PM72 °FClear.No wind30%30.02 "Hg10 mi
11:13 PM70 °FClear.No wind29%30.02 "Hg10 mi
10:54 PM70 °FClear.5 mph30%30.02 "Hg10 mi
10:33 PM74 °FClear.3 mph27%30.02 "Hg10 mi
10:13 PM74 °FClear.3 mph27%30.02 "Hg10 mi
9:54 PM77 °FClear.No wind23%30.01 "Hg10 mi
9:33 PM79 °FClear.3 mph21%30.01 "Hg10 mi
9:14 PM80 °FClear.5 mph21%30.01 "Hg10 mi
8:50 PM81 °FClear.7 mph18%30.01 "Hg10 mi
7:46 PM84 °FClear.9 mph18%29.98 "Hg10 mi
6:53 PM91 °FPassing clouds.13 mph9%29.95 "Hg10 mi
5:50 PM95 °FSunny.16 mph9%29.93 "Hg10 mi
Weather by CustomWeather, © 2016

See weather overviewHow to use our weather pages